Time,TemperatureF,DewpointF,PressureIn,WindDirection,WindDirectionDegrees,WindSpeedMPH,WindSpeedGustMPH,Humidity,HourlyPrecipIn,Conditions,Clouds,dailyrainin,SoftwareType,DateUTC
2013-06-19 00:00:00,71.6,40.1,29.79,NW,323,0.0,0.0,32,0.00,,,-99.99,Weather View 32 v60,2013-06-19 04:00:00,
2013-06-19 00:04:00,71.6,40.1,29.79,NW,323,0.0,0.0,32,0.00,,,-99.99,Weather View 32 v60,2013-06-19 04:04:00,
2013-06-19 00:05:00,71.6,40.1,29.79,NW,323,0.0,0.0,32,0.00,,,-99.99,Weather View 32 v60,2013-06-19 04:05:00,
2013-06-19 00:10:00,71.8,40.3,29.79,NW,323,0.0,0.0,32,0.00,,,-99.99,Weather View 32 v60,2013-06-19 04:10:00,
2013-06-19 00:15:00,71.8,41.1,29.79,NW,323,0.0,3.0,33,0.00,,,-99.99,Weather View 32 v60,2013-06-19 04:15:00,
2013-06-19 00:21:00,72.0,41.2,29.79,NW,323,0.0,3.0,33,0.00,,,-99.99,Weather View 32 v60,2013-06-19 04:21:00,
2013-06-19 00:26:00,72.0,41.2,29.79,NW,323,0.0,3.0,33,0.00,,,-99.99,Weather View 32 v60,2013-06-19 04:26:00,
2013-06-19 00:36:00,72.3,41.5,29.79,NW,323,0.0,3.0,33,0.00,,,-99.99,Weather View 32 v60,2013-06-19 04:36:00,
2013-06-19 00:45:00,72.3,41.5,29.82,South,179,0.0,3.0,33,0.00,,,-99.99,Weather View 32 v60,2013-06-19 04:45:00,
2013-06-19 00:51:00,72.3,41.5,29.82,South,179,0.0,3.0,33,0.00,,,-99.99,Weather View 32 v60,2013-06-19 04:51:00,
2013-06-19 01:00:00,72.3,42.3,29.79,South,179,0.0,3.0,34,0.00,,,-99.99,Weather View 32 v60,2013-06-19 05:00:00,
2013-06-19 01:05:00,72.3,42.3,29.79,South,179,0.0,3.0,34,0.00,,,-99.99,Weather View 32 v60,2013-06-19 05:05:00,
2013-06-19 01:10:00,72.3,42.3,29.82,South,179,0.0,3.0,34,0.00,,,-99.99,Weather View 32 v60,2013-06-19 05:10:00,
2013-06-19 01:16:00,72.3,42.3,29.82,South,179,0.0,3.0,34,0.00,,,-99.99,Weather View 32 v60,2013-06-19 05:16:00,
2013-06-19 01:21:00,72.3,42.3,29.82,South,179,0.0,3.0,34,0.00,,,-99.99,Weather View 32 v60,2013-06-19 05:21:00,
2013-06-19 01:26:00,72.3,42.3,29.79,South,179,0.0,3.0,34,0.00,,,-99.99,Weather View 32 v60,2013-06-19 05:26:00,
2013-06-19 01:35:00,72.1,42.1,29.79,South,179,0.0,3.0,34,0.00,,,-99.99,Weather View 32 v60,2013-06-19 05:35:00,
2013-06-19 01:45:00,72.1,42.1,29.79,South,179,0.0,0.0,34,0.00,,,-99.99,Weather View 32 v60,2013-06-19 05:45:00,
2013-06-19 01:50:00,72.1,42.1,29.79,South,179,0.0,0.0,34,0.00,,,-99.99,Weather View 32 v60,2013-06-19 05:50:00,
2013-06-19 02:00:00,72.0,42.0,29.82,South,179,0.0,0.0,34,0.00,,,-99.99,Weather View 32 v60,2013-06-19 06:00:00,
2013-06-19 02:05:00,71.8,41.8,29.82,South,179,0.0,0.0,34,0.00,,,-99.99,Weather View 32 v60,2013-06-19 06:05:00,
2013-06-19 02:10:00,71.8,41.8,29.82,South,179,0.0,0.0,34,0.00,,,-99.99,Weather View 32 v60,2013-06-19 06:10:00,
2013-06-19 02:16:00,71.8,41.8,29.82,South,179,0.0,0.0,34,0.00,,,-99.99,Weather View 32 v60,2013-06-19 06:16:00,
2013-06-19 02:25:00,71.6,40.9,29.82,South,179,0.0,0.0,33,0.00,,,-99.99,Weather View 32 v60,2013-06-19 06:25:00,
2013-06-19 02:30:00,71.6,40.9,29.82,South,179,0.0,0.0,33,0.00,,,-99.99,Weather View 32 v60,2013-06-19 06:30:00,
2013-06-19 02:36:00,71.4,40.7,29.82,South,179,0.0,0.0,33,0.00,,,-99.99,Weather View 32 v60,2013-06-19 06:36:00,
2013-06-19 02:46:00,71.2,40.6,29.82,South,179,0.0,0.0,33,0.00,,,-99.99,Weather View 32 v60,2013-06-19 06:46:00,
2013-06-19 02:55:00,71.1,40.4,29.82,South,179,0.0,0.0,33,0.00,,,-99.99,Weather View 32 v60,2013-06-19 06:55:00,
2013-06-19 03:00:00,71.1,40.4,29.82,South,179,0.0,0.0,33,0.00,,,-99.99,Weather View 32 v60,2013-06-19 07:00:00,
2013-06-19 03:06:00,70.9,40.3,29.82,South,179,0.0,0.0,33,0.00,,,-99.99,Weather View 32 v60,2013-06-19 07:06:00,
2013-06-19 03:11:00,70.7,40.1,29.82,South,179,0.0,0.0,33,0.00,,,-99.99,Weather View 32 v60,2013-06-19 07:11:00,
2013-06-19 03:20:00,70.5,40.0,29.82,South,179,0.0,0.0,33,0.00,,,-99.99,Weather View 32 v60,2013-06-19 07:20:00,
2013-06-19 03:25:00,70.5,40.0,29.82,South,179,0.0,0.0,33,0.00,,,-99.99,Weather View 32 v60,2013-06-19 07:25:00,
2013-06-19 03:35:00,70.3,39.8,29.82,South,179,0.0,0.0,33,0.00,,,-99.99,Weather View 32 v60,2013-06-19 07:35:00,
2013-06-19 03:40:00,70.3,39.8,29.82,South,179,0.0,0.0,33,0.00,,,-99.99,Weather View 32 v60,2013-06-19 07:40:00,
2013-06-19 03:45:00,70.3,39.8,29.82,South,179,0.0,0.0,33,0.00,,,-99.99,Weather View 32 v60,2013-06-19 07:45:00,
2013-06-19 03:56:00,70.2,39.6,29.82,South,179,0.0,0.0,33,0.00,,,-99.99,Weather View 32 v60,2013-06-19 07:56:00,
2013-06-19 04:05:00,70.0,39.5,29.82,South,179,0.0,0.0,33,0.00,,,-99.99,Weather View 32 v60,2013-06-19 08:05:00,
2013-06-19 04:10:00,70.0,39.5,29.82,South,179,0.0,0.0,33,0.00,,,-99.99,Weather View 32 v60,2013-06-19 08:10:00,
2013-06-19 04:16:00,70.0,39.5,29.82,South,179,0.0,0.0,33,0.00,,,-99.99,Weather View 32 v60,2013-06-19 08:16:00,
2013-06-19 04:21:00,70.0,39.5,29.82,South,179,0.0,0.0,33,0.00,,,-99.99,Weather View 32 v60,2013-06-19 08:21:00,
2013-06-19 04:30:00,70.0,39.5,29.82,South,179,0.0,0.0,33,0.00,,,-99.99,Weather View 32 v60,2013-06-19 08:30:00,
2013-06-19 04:35:00,69.8,39.3,29.82,South,179,0.0,0.0,33,0.00,,,-99.99,Weather View 32 v60,2013-06-19 08:35:00,
2013-06-19 04:41:00,69.8,39.3,29.82,South,179,0.0,0.0,33,0.00,,,-99.99,Weather View 32 v60,2013-06-19 08:41:00,
2013-06-19 04:46:00,69.8,39.3,29.82,South,179,0.0,0.0,33,0.00,,,-99.99,Weather View 32 v60,2013-06-19 08:46:00,
2013-06-19 04:55:00,69.6,39.2,29.82,South,179,0.0,0.0,33,0.00,,,-99.99,Weather View 32 v60,2013-06-19 08:55:00,
2013-06-19 05:01:00,69.6,38.4,29.82,South,179,0.0,0.0,32,0.00,,,-99.99,Weather View 32 v60,2013-06-19 09:01:00,
2013-06-19 05:07:00,69.6,38.4,29.82,South,179,0.0,0.0,32,0.00,,,-99.99,Weather View 32 v60,2013-06-19 09:07:00,
2013-06-19 05:15:00,69.6,38.4,29.82,South,179,0.0,0.0,32,0.00,,,-99.99,Weather View 32 v60,2013-06-19 09:15:00,
2013-06-19 05:20:00,69.6,38.4,29.82,South,179,0.0,0.0,32,0.00,,,-99.99,Weather View 32 v60,2013-06-19 09:20:00,
2013-06-19 05:25:00,69.6,38.4,29.82,South,179,0.0,0.0,32,0.00,,,-99.99,Weather View 32 v60,2013-06-19 09:25:00,
2013-06-19 05:30:00,69.6,38.4,29.82,South,179,0.0,0.0,32,0.00,,,-99.99,Weather View 32 v60,2013-06-19 09:30:00,
2013-06-19 05:35:00,69.6,38.4,29.82,South,179,0.0,0.0,32,0.00,,,-99.99,Weather View 32 v60,2013-06-19 09:35:00,
2013-06-19 05:45:00,69.6,38.4,29.82,South,179,0.0,0.0,32,0.00,,,-99.99,Weather View 32 v60,2013-06-19 09:45:00,
2013-06-19 05:51:00,69.6,38.4,29.82,South,179,0.0,0.0,32,0.00,,,-99.99,Weather View 32 v60,2013-06-19 09:51:00,
2013-06-19 06:01:00,69.6,38.4,29.82,South,179,0.0,0.0,32,0.00,,,-99.99,Weather View 32 v60,2013-06-19 10:01:00,
2013-06-19 06:08:00,69.6,38.4,29.82,South,179,0.0,0.0,32,0.00,,,-99.99,Weather View 32 v60,2013-06-19 10:08:00,
2013-06-19 06:15:00,69.6,38.4,29.85,South,179,0.0,0.0,32,0.00,,,-99.99,Weather View 32 v60,2013-06-19 10:15:00,
2013-06-19 06:25:00,69.6,38.4,29.85,South,179,0.0,0.0,32,0.00,,,-99.99,Weather View 32 v60,2013-06-19 10:25:00,
2013-06-19 06:30:00,69.6,38.4,29.85,South,179,0.0,0.0,32,0.00,,,-99.99,Weather View 32 v60,2013-06-19 10:30:00,
2013-06-19 06:36:00,69.6,38.4,29.85,South,179,0.0,0.0,32,0.00,,,-99.99,Weather View 32 v60,2013-06-19 10:36:00,
2013-06-19 06:45:00,69.6,38.4,29.85,South,179,0.0,0.0,32,0.00,,,-99.99,Weather View 32 v60,2013-06-19 10:45:00,
2013-06-19 06:50:00,69.6,38.4,29.85,South,179,0.0,0.0,32,0.00,,,-99.99,Weather View 32 v60,2013-06-19 10:50:00,
2013-06-19 06:56:00,69.6,38.4,29.85,South,179,0.0,0.0,32,0.00,,,-99.99,Weather View 32 v60,2013-06-19 10:56:00,
2013-06-19 07:05:00,69.6,38.4,29.85,South,179,0.0,0.0,32,0.00,,,-99.99,Weather View 32 v60,2013-06-19 11:05:00,
2013-06-19 07:10:00,69.6,38.4,29.88,South,179,0.0,0.0,32,0.00,,,-99.99,Weather View 32 v60,2013-06-19 11:10:00,
2013-06-19 07:16:00,69.6,38.4,29.88,South,179,0.0,0.0,32,0.00,,,-99.99,Weather View 32 v60,2013-06-19 11:16:00,
2013-06-19 07:25:00,69.6,38.4,29.88,South,179,0.0,0.0,32,0.00,,,-99.99,Weather View 32 v60,2013-06-19 11:25:00,
2013-06-19 07:30:00,69.6,38.4,29.88,South,179,0.0,0.0,32,0.00,,,-99.99,Weather View 32 v60,2013-06-19 11:30:00,
2013-06-19 07:36:00,69.6,38.4,29.88,South,179,0.0,0.0,32,0.00,,,-99.99,Weather View 32 v60,2013-06-19 11:36:00,
2013-06-19 07:45:00,69.4,38.2,29.88,South,179,0.0,0.0,32,0.00,,,-99.99,Weather View 32 v60,2013-06-19 11:45:00,
2013-06-19 07:50:00,69.4,38.2,29.88,South,179,0.0,0.0,32,0.00,,,-99.99,Weather View 32 v60,2013-06-19 11:50:00,
2013-06-19 07:56:00,69.4,38.2,29.88,South,179,0.0,0.0,32,0.00,,,-99.99,Weather View 32 v60,2013-06-19 11:56:00,
2013-06-19 08:06:00,69.4,38.2,29.88,South,179,0.0,0.0,32,0.00,,,-99.99,Weather View 32 v60,2013-06-19 12:06:00,
2013-06-19 08:15:00,69.3,38.1,29.88,South,179,0.0,0.0,32,0.00,,,-99.99,Weather View 32 v60,2013-06-19 12:15:00,
2013-06-19 08:20:00,69.4,38.2,29.88,South,179,0.0,0.0,32,0.00,,,-99.99,Weather View 32 v60,2013-06-19 12:20:00,
2013-06-19 08:26:00,69.6,38.4,29.88,South,179,0.0,0.0,32,0.00,,,-99.99,Weather View 32 v60,2013-06-19 12:26:00,
2013-06-19 08:31:00,69.8,38.5,29.88,South,179,0.0,0.0,32,0.00,,,-99.99,Weather View 32 v60,2013-06-19 12:31:00,
2013-06-19 08:36:00,70.0,38.7,29.88,South,179,0.0,0.0,32,0.00,,,-99.99,Weather View 32 v60,2013-06-19 12:36:00,
2013-06-19 08:46:00,70.5,39.2,29.88,South,179,0.0,0.0,32,0.00,,,-99.99,Weather View 32 v60,2013-06-19 12:46:00,
2013-06-19 08:55:00,71.2,39.8,29.91,South,179,0.0,0.0,32,0.00,,,-99.99,Weather View 32 v60,2013-06-19 12:55:00,
2013-06-19 09:01:00,71.4,39.9,29.91,South,179,0.0,0.0,32,0.00,,,-99.99,Weather View 32 v60,2013-06-19 13:01:00,
2013-06-19 09:09:00,71.6,40.1,29.91,South,179,0.0,0.0,32,0.00,,,-99.99,Weather View 32 v60,2013-06-19 13:09:00,
2013-06-19 09:15:00,71.8,40.3,29.91,South,179,0.0,0.0,32,0.00,,,-99.99,Weather View 32 v60,2013-06-19 13:15:00,
2013-06-19 09:25:00,72.1,40.6,29.91,South,179,0.0,0.0,32,0.00,,,-99.99,Weather View 32 v60,2013-06-19 13:25:00,
2013-06-19 09:30:00,72.5,40.9,29.91,South,179,0.0,0.0,32,0.00,,,-99.99,Weather View 32 v60,2013-06-19 13:30:00,
2013-06-19 09:35:00,72.7,41.0,29.91,South,179,0.0,0.0,32,0.00,,,-99.99,Weather View 32 v60,2013-06-19 13:35:00,
2013-06-19 09:45:00,73.0,41.4,29.91,South,179,0.0,3.0,32,0.00,,,-99.99,Weather View 32 v60,2013-06-19 13:45:00,
2013-06-19 09:51:00,73.2,41.5,29.91,South,179,0.0,3.0,32,0.00,,,-99.99,Weather View 32 v60,2013-06-19 13:51:00,
2013-06-19 10:00:00,73.8,42.0,29.91,South,179,0.0,3.0,32,0.00,,,-99.99,Weather View 32 v60,2013-06-19 14:00:00,
2013-06-19 10:06:00,74.1,42.3,29.91,SSE,166,0.0,3.0,32,0.00,,,-99.99,Weather View 32 v60,2013-06-19 14:06:00,
2013-06-19 10:15:00,74.7,41.9,29.91,SSE,161,3.0,3.0,31,0.00,,,-99.99,Weather View 32 v60,2013-06-19 14:15:00,
2013-06-19 10:21:00,74.8,42.1,29.91,SW,221,0.0,3.0,31,0.00,,,-99.99,Weather View 32 v60,2013-06-19 14:21:00,
2013-06-19 10:26:00,75.0,42.2,29.91,SE,130,3.0,3.0,31,0.00,,,-99.99,Weather View 32 v60,2013-06-19 14:26:00,
2013-06-19 10:35:00,75.7,42.9,29.91,SE,130,0.0,4.0,31,0.00,,,-99.99,Weather View 32 v60,2013-06-19 14:35:00,
2013-06-19 10:40:00,76.3,42.5,29.91,SE,130,0.0,4.0,30,0.00,,,-99.99,Weather View 32 v60,2013-06-19 14:40:00,
2013-06-19 10:46:00,76.5,41.8,29.91,SE,130,0.0,4.0,29,0.00,,,-99.99,Weather View 32 v60,2013-06-19 14:46:00,
2013-06-19 10:55:00,76.8,40.2,29.91,WNW,300,0.0,4.0,27,0.00,,,-99.99,Weather View 32 v60,2013-06-19 14:55:00,
2013-06-19 11:01:00,76.6,39.1,29.91,ENE,71,0.0,4.0,26,0.00,,,-99.99,Weather View 32 v60,2013-06-19 15:01:00,
2013-06-19 11:11:00,76.1,37.6,29.91,ENE,71,0.0,4.0,25,0.00,,,-99.99,Weather View 32 v60,2013-06-19 15:11:00,
2013-06-19 11:20:00,76.3,36.7,29.91,ENE,71,0.0,4.0,24,0.00,,,-99.99,Weather View 32 v60,2013-06-19 15:20:00,
2013-06-19 11:25:00,76.8,37.2,29.91,ENE,71,0.0,4.0,24,0.00,,,-99.99,Weather View 32 v60,2013-06-19 15:25:00,
2013-06-19 11:35:00,79.0,40.1,29.91,ESE,107,3.0,4.0,25,0.00,,,-99.99,Weather View 32 v60,2013-06-19 15:35:00,
2013-06-19 11:41:00,79.9,39.8,29.91,SSE,147,0.0,4.0,24,0.00,,,-99.99,Weather View 32 v60,2013-06-19 15:41:00,
2013-06-19 11:50:00,80.8,38.3,29.91,SE,127,0.0,4.0,22,0.00,,,-99.99,Weather View 32 v60,2013-06-19 15:50:00,
2013-06-19 12:01:00,80.2,36.6,29.91,SE,127,0.0,4.0,21,0.00,,,-99.99,Weather View 32 v60,2013-06-19 16:01:00,
2013-06-19 12:10:00,80.6,35.7,29.94,SE,127,0.0,4.0,20,0.00,,,-99.99,Weather View 32 v60,2013-06-19 16:10:00,
2013-06-19 12:15:00,80.6,35.7,29.94,SE,127,0.0,4.0,20,0.00,,,-99.99,Weather View 32 v60,2013-06-19 16:15:00,
2013-06-19 12:25:00,81.7,36.6,29.94,SE,127,0.0,4.0,20,0.00,,,-99.99,Weather View 32 v60,2013-06-19 16:25:00,
2013-06-19 12:30:00,82.0,35.6,29.94,SE,127,0.0,4.0,19,0.00,,,-99.99,Weather View 32 v60,2013-06-19 16:30:00,
2013-06-19 12:35:00,81.7,35.3,29.94,SE,127,0.0,4.0,19,0.00,,,-99.99,Weather View 32 v60,2013-06-19 16:35:00,
2013-06-19 12:46:00,82.2,35.7,29.91,East,98,0.0,4.0,19,0.00,,,-99.99,Weather View 32 v60,2013-06-19 16:46:00,
2013-06-19 12:56:00,82.9,36.3,29.91,East,99,0.0,4.0,19,0.00,,,-99.99,Weather View 32 v60,2013-06-19 16:56:00,
2013-06-19 13:05:00,82.8,31.9,29.91,SSW,210,0.0,4.0,16,0.00,,,-99.99,Weather View 32 v60,2013-06-19 17:05:00,
2013-06-19 13:10:00,82.6,31.7,29.91,South,176,0.0,4.0,16,0.00,,,-99.99,Weather View 32 v60,2013-06-19 17:10:00,
2013-06-19 13:15:00,83.1,32.2,29.91,South,176,0.0,4.0,16,0.00,,,-99.99,Weather View 32 v60,2013-06-19 17:15:00,
2013-06-19 13:20:00,83.3,32.3,29.91,SW,227,0.0,4.0,16,0.00,,,-99.99,Weather View 32 v60,2013-06-19 17:20:00,
2013-06-19 13:26:00,83.1,32.2,29.91,ENE,70,0.0,4.0,16,0.00,,,-99.99,Weather View 32 v60,2013-06-19 17:26:00,
2013-06-19 13:35:00,82.6,31.7,29.91,ESE,104,3.0,4.0,16,0.00,,,-99.99,Weather View 32 v60,2013-06-19 17:35:00,
2013-06-19 13:40:00,82.2,31.4,29.91,WNW,284,0.0,4.0,16,0.00,,,-99.99,Weather View 32 v60,2013-06-19 17:40:00,
2013-06-19 13:46:00,82.0,31.3,29.91,WNW,287,0.0,4.0,16,0.00,,,-99.99,Weather View 32 v60,2013-06-19 17:46:00,
2013-06-19 14:00:00,81.0,27.2,29.91,ENE,76,0.0,4.0,14,0.00,,,-99.99,Weather View 32 v60,2013-06-19 18:00:00,
2013-06-19 14:06:00,80.8,27.0,29.91,SSW,202,0.0,4.0,14,0.00,,,-99.99,Weather View 32 v60,2013-06-19 18:06:00,
2013-06-19 14:11:00,80.6,26.9,29.91,SSW,202,0.0,4.0,14,0.00,,,-99.99,Weather View 32 v60,2013-06-19 18:11:00,
2013-06-19 14:17:00,80.4,26.7,29.91,SSE,148,0.0,4.0,14,0.00,,,-99.99,Weather View 32 v60,2013-06-19 18:17:00,
2013-06-19 14:25:00,80.1,26.5,29.91,SSE,148,0.0,4.0,14,0.00,,,-99.99,Weather View 32 v60,2013-06-19 18:25:00,
2013-06-19 14:31:00,79.7,26.2,29.91,SSE,148,0.0,4.0,14,0.00,,,-99.99,Weather View 32 v60,2013-06-19 18:31:00,
2013-06-19 14:36:00,79.7,27.8,29.91,SSE,148,0.0,4.0,15,0.00,,,-99.99,Weather View 32 v60,2013-06-19 18:36:00,
2013-06-19 14:41:00,79.5,27.7,29.91,SSE,148,0.0,4.0,15,0.00,,,-99.99,Weather View 32 v60,2013-06-19 18:41:00,
2013-06-19 14:46:00,79.5,27.7,29.91,SSE,148,0.0,4.0,15,0.00,,,-99.99,Weather View 32 v60,2013-06-19 18:46:00,
2013-06-19 14:55:00,79.3,27.6,29.91,SSE,148,0.0,4.0,15,0.00,,,-99.99,Weather View 32 v60,2013-06-19 18:55:00,
2013-06-19 15:00:00,79.2,27.4,29.91,SSE,148,0.0,4.0,15,0.00,,,-99.99,Weather View 32 v60,2013-06-19 19:00:00,
2013-06-19 15:05:00,79.0,27.3,29.91,SSE,148,0.0,3.0,15,0.00,,,-99.99,Weather View 32 v60,2013-06-19 19:05:00,
2013-06-19 15:11:00,79.0,30.3,29.91,SSE,148,0.0,3.0,17,0.00,,,-99.99,Weather View 32 v60,2013-06-19 19:11:00,
2013-06-19 15:20:00,78.8,30.2,29.91,SSE,148,0.0,0.0,17,0.00,,,-99.99,Weather View 32 v60,2013-06-19 19:20:00,
2013-06-19 15:25:00,78.6,30.0,29.91,SSE,148,0.0,0.0,17,0.00,,,-99.99,Weather View 32 v60,2013-06-19 19:25:00,
2013-06-19 15:30:00,78.4,29.9,29.91,SSE,148,0.0,0.0,17,0.00,,,-99.99,Weather View 32 v60,2013-06-19 19:30:00,
2013-06-19 15:40:00,78.4,29.9,29.91,SSE,148,0.0,0.0,17,0.00,,,-99.99,Weather View 32 v60,2013-06-19 19:40:00,
2013-06-19 15:45:00,78.4,29.9,29.91,SSE,148,0.0,0.0,17,0.00,,,-99.99,Weather View 32 v60,2013-06-19 19:45:00,
2013-06-19 15:51:00,78.3,29.8,29.91,SSE,149,0.0,0.0,17,0.00,,,-99.99,Weather View 32 v60,2013-06-19 19:51:00,
2013-06-19 16:00:00,78.3,29.8,29.91,SSE,148,0.0,0.0,17,0.00,,,-99.99,Weather View 32 v60,2013-06-19 20:00:00,
2013-06-19 16:05:00,78.3,29.8,29.91,SSE,149,0.0,0.0,17,0.00,,,-99.99,Weather View 32 v60,2013-06-19 20:05:00,
2013-06-19 16:10:00,78.3,29.8,29.91,SSE,148,0.0,0.0,17,0.00,,,-99.99,Weather View 32 v60,2013-06-19 20:10:00,
2013-06-19 16:15:00,78.3,29.8,29.91,SSE,148,0.0,0.0,17,0.00,,,-99.99,Weather View 32 v60,2013-06-19 20:15:00,
2013-06-19 16:20:00,78.4,29.9,29.91,SSE,148,0.0,0.0,17,0.00,,,-99.99,Weather View 32 v60,2013-06-19 20:20:00,
2013-06-19 16:25:00,78.4,29.9,29.91,SSE,148,0.0,0.0,17,0.00,,,-99.99,Weather View 32 v60,2013-06-19 20:25:00,
2013-06-19 16:31:00,78.6,30.0,29.91,SSE,149,0.0,0.0,17,0.00,,,-99.99,Weather View 32 v60,2013-06-19 20:31:00,
2013-06-19 16:40:00,78.8,34.2,29.91,SSE,148,0.0,0.0,20,0.00,,,-99.99,Weather View 32 v60,2013-06-19 20:40:00,
2013-06-19 16:45:00,79.0,34.4,29.91,SSE,148,0.0,0.0,20,0.00,,,-99.99,Weather View 32 v60,2013-06-19 20:45:00,
2013-06-19 16:55:00,79.2,34.5,29.91,SSE,148,0.0,3.0,20,0.00,,,-99.99,Weather View 32 v60,2013-06-19 20:55:00,
2013-06-19 17:00:00,79.5,34.8,29.91,ESE,107,0.0,4.0,20,0.00,,,-99.99,Weather View 32 v60,2013-06-19 21:00:00,
2013-06-19 17:10:00,79.7,30.9,29.91,South,177,0.0,4.0,17,0.00,,,-99.99,Weather View 32 v60,2013-06-19 21:10:00,
2013-06-19 17:15:00,79.5,30.8,29.91,South,171,0.0,4.0,17,0.00,,,-99.99,Weather View 32 v60,2013-06-19 21:15:00,
2013-06-19 17:20:00,79.3,30.6,29.91,South,171,0.0,4.0,17,0.00,,,-99.99,Weather View 32 v60,2013-06-19 21:20:00,
2013-06-19 17:30:00,79.5,30.8,29.91,South,182,0.0,4.0,17,0.00,,,-99.99,Weather View 32 v60,2013-06-19 21:30:00,
2013-06-19 17:35:00,79.7,30.9,29.91,SSE,165,0.0,4.0,17,0.00,,,-99.99,Weather View 32 v60,2013-06-19 21:35:00,
2013-06-19 17:45:00,79.5,30.8,29.91,WSW,255,0.0,4.0,17,0.00,,,-99.99,Weather View 32 v60,2013-06-19 21:45:00,
2013-06-19 17:50:00,79.5,30.8,29.91,East,85,3.0,4.0,17,0.00,,,-99.99,Weather View 32 v60,2013-06-19 21:50:00,
2013-06-19 17:56:00,79.5,30.8,29.91,East,85,0.0,4.0,17,0.00,,,-99.99,Weather View 32 v60,2013-06-19 21:56:00,
2013-06-19 18:06:00,79.3,30.6,29.91,East,85,0.0,4.0,17,0.00,,,-99.99,Weather View 32 v60,2013-06-19 22:06:00,
2013-06-19 18:15:00,79.2,30.5,29.91,East,85,0.0,4.0,17,0.00,,,-99.99,Weather View 32 v60,2013-06-19 22:15:00,
2013-06-19 18:20:00,79.2,30.5,29.91,East,85,0.0,4.0,17,0.00,,,-99.99,Weather View 32 v60,2013-06-19 22:20:00,
2013-06-19 18:26:00,79.0,30.3,29.91,East,85,0.0,4.0,17,0.00,,,-99.99,Weather View 32 v60,2013-06-19 22:26:00,
2013-06-19 18:36:00,78.3,26.7,29.91,East,85,0.0,4.0,15,0.00,,,-99.99,Weather View 32 v60,2013-06-19 22:36:00,
2013-06-19 18:41:00,77.9,26.4,29.91,East,85,0.0,4.0,15,0.00,,,-99.99,Weather View 32 v60,2013-06-19 22:41:00,
2013-06-19 18:50:00,77.2,25.8,29.91,East,85,0.0,4.0,15,0.00,,,-99.99,Weather View 32 v60,2013-06-19 22:50:00,
2013-06-19 19:00:00,76.6,29.9,29.91,East,85,0.0,4.0,18,0.00,,,-99.99,Weather View 32 v60,2013-06-19 23:00:00,
2013-06-19 19:10:00,76.6,29.9,29.91,East,85,0.0,4.0,18,0.00,,,-99.99,Weather View 32 v60,2013-06-19 23:10:00,
2013-06-19 19:15:00,76.6,29.9,29.91,East,85,0.0,0.0,18,0.00,,,-99.99,Weather View 32 v60,2013-06-19 23:15:00,
2013-06-19 19:20:00,76.6,29.9,29.91,East,85,0.0,0.0,18,0.00,,,-99.99,Weather View 32 v60,2013-06-19 23:20:00,
2013-06-19 19:25:00,76.5,29.7,29.91,East,85,0.0,0.0,18,0.00,,,-99.99,Weather View 32 v60,2013-06-19 23:25:00,
2013-06-19 19:31:00,76.5,29.7,29.91,East,85,0.0,0.0,18,0.00,,,-99.99,Weather View 32 v60,2013-06-19 23:31:00,
2013-06-19 19:40:00,76.1,29.4,29.91,East,85,0.0,0.0,18,0.00,,,-99.99,Weather View 32 v60,2013-06-19 23:40:00,
2013-06-19 19:45:00,75.9,29.3,29.91,East,85,0.0,0.0,18,0.00,,,-99.99,Weather View 32 v60,2013-06-19 23:45:00,
2013-06-19 19:51:00,75.9,29.3,29.91,East,85,0.0,0.0,18,0.00,,,-99.99,Weather View 32 v60,2013-06-19 23:51:00,
2013-06-19 20:00:00,75.6,29.0,29.94,East,85,0.0,0.0,18,0.00,,,-99.99,Weather View 32 v60,2013-06-20 00:00:00,
2013-06-19 20:05:00,75.4,28.8,29.94,East,85,0.0,0.0,18,0.00,,,-99.99,Weather View 32 v60,2013-06-20 00:05:00,
2013-06-19 20:16:00,75.2,28.7,29.94,East,85,0.0,0.0,18,0.00,,,-99.99,Weather View 32 v60,2013-06-20 00:16:00,
2013-06-19 20:26:00,74.8,28.4,29.94,East,85,0.0,0.0,18,0.00,,,-99.99,Weather View 32 v60,2013-06-20 00:26:00,
2013-06-19 20:31:00,74.7,28.2,29.94,East,85,0.0,0.0,18,0.00,,,-99.99,Weather View 32 v60,2013-06-20 00:31:00,
2013-06-19 20:40:00,74.3,27.9,29.94,East,85,0.0,0.0,18,0.00,,,-99.99,Weather View 32 v60,2013-06-20 00:40:00,
2013-06-19 20:45:00,74.1,31.6,29.94,East,85,0.0,0.0,21,0.00,,,-99.99,Weather View 32 v60,2013-06-20 00:45:00,
2013-06-19 20:50:00,73.9,31.4,29.94,East,85,0.0,0.0,21,0.00,,,-99.99,Weather View 32 v60,2013-06-20 00:50:00,
2013-06-19 20:56:00,73.8,31.3,29.94,East,85,0.0,0.0,21,0.00,,,-99.99,Weather View 32 v60,2013-06-20 00:56:00,
2013-06-19 21:01:00,73.6,31.1,29.94,East,85,0.0,0.0,21,0.00,,,-99.99,Weather View 32 v60,2013-06-20 01:01:00,
2013-06-19 21:10:00,73.4,31.0,29.94,East,85,0.0,0.0,21,0.00,,,-99.99,Weather View 32 v60,2013-06-20 01:10:00,
2013-06-19 21:16:00,73.2,30.8,29.94,East,85,0.0,0.0,21,0.00,,,-99.99,Weather View 32 v60,2013-06-20 01:16:00,
2013-06-19 21:25:00,72.9,30.5,29.94,East,85,0.0,0.0,21,0.00,,,-99.99,Weather View 32 v60,2013-06-20 01:25:00,
2013-06-19 21:31:00,72.9,30.5,29.94,East,85,0.0,0.0,21,0.00,,,-99.99,Weather View 32 v60,2013-06-20 01:31:00,
2013-06-19 21:40:00,72.7,30.4,29.97,East,85,0.0,0.0,21,0.00,,,-99.99,Weather View 32 v60,2013-06-20 01:40:00,
2013-06-19 21:45:00,72.7,30.4,29.97,East,85,0.0,0.0,21,0.00,,,-99.99,Weather View 32 v60,2013-06-20 01:45:00,
2013-06-19 21:55:00,72.5,31.4,29.97,East,85,0.0,0.0,22,0.00,,,-99.99,Weather View 32 v60,2013-06-20 01:55:00,
2013-06-19 22:00:00,72.5,31.4,29.97,East,85,0.0,0.0,22,0.00,,,-99.99,Weather View 32 v60,2013-06-20 02:00:00,
2013-06-19 22:05:00,72.3,31.2,29.97,East,85,0.0,0.0,22,0.00,,,-99.99,Weather View 32 v60,2013-06-20 02:05:00,
2013-06-19 22:10:00,72.3,31.2,29.97,East,85,0.0,0.0,22,0.00,,,-99.99,Weather View 32 v60,2013-06-20 02:10:00,
2013-06-19 22:17:00,72.1,32.2,29.97,East,85,0.0,0.0,23,0.00,,,-99.99,Weather View 32 v60,2013-06-20 02:17:00,
2013-06-19 22:25:00,72.0,32.1,30.00,East,85,0.0,0.0,23,0.00,,,-99.99,Weather View 32 v60,2013-06-20 02:25:00,
2013-06-19 22:31:00,72.0,32.1,30.00,East,85,0.0,0.0,23,0.00,,,-99.99,Weather View 32 v60,2013-06-20 02:31:00,
2013-06-19 22:41:00,71.8,33.0,30.00,East,85,0.0,0.0,24,0.00,,,-99.99,Weather View 32 v60,2013-06-20 02:41:00,
2013-06-19 22:50:00,71.4,32.7,30.00,East,85,0.0,0.0,24,0.00,,,-99.99,Weather View 32 v60,2013-06-20 02:50:00,
2013-06-19 22:55:00,71.4,32.7,30.00,East,85,0.0,0.0,24,0.00,,,-99.99,Weather View 32 v60,2013-06-20 02:55:00,
2013-06-19 23:01:00,71.2,33.5,30.00,East,85,0.0,0.0,25,0.00,,,-99.99,Weather View 32 v60,2013-06-20 03:01:00,
2013-06-19 23:10:00,70.9,34.2,30.00,East,85,0.0,0.0,26,0.00,,,-99.99,Weather View 32 v60,2013-06-20 03:10:00,
2013-06-19 23:15:00,70.9,34.2,30.00,East,85,0.0,0.0,26,0.00,,,-99.99,Weather View 32 v60,2013-06-20 03:15:00,
2013-06-19 23:20:00,70.7,34.0,30.00,East,85,0.0,0.0,26,0.00,,,-99.99,Weather View 32 v60,2013-06-20 03:20:00,
2013-06-19 23:25:00,70.7,35.0,30.00,East,85,0.0,0.0,27,0.00,,,-99.99,Weather View 32 v60,2013-06-20 03:25:00,
2013-06-19 23:31:00,70.5,34.8,30.00,East,85,0.0,0.0,27,0.00,,,-99.99,Weather View 32 v60,2013-06-20 03:31:00,
2013-06-19 23:36:00,70.5,35.8,30.00,East,85,0.0,0.0,28,0.00,,,-99.99,Weather View 32 v60,2013-06-20 03:36:00,
2013-06-19 23:45:00,70.2,35.5,30.00,East,85,0.0,0.0,28,0.00,,,-99.99,Weather View 32 v60,2013-06-20 03:45:00,
2013-06-19 23:51:00,70.2,36.3,30.00,East,85,0.0,0.0,29,0.00,,,-99.99,Weather View 32 v60,2013-06-20 03:51:00,